Location: Haliburton Scout Reserve
(45.0900°N, 78.3200°W)
Time: 21:34:48
(UTC-04:00)

Cosmos 1315 - Visible Passes

Search period start: 01 June 2015 00:00
Search period end: 11 June 2015 00:00
Orbit: 324 x 334 km, 81.1° (Epoch: 31 May)

Date Brightness Start Highest point End Pass type
(mag) Time Alt. Az. Time Alt. Az. Time Alt. Az.
01 Jun 5.0 00:09:44 10° NNE 00:10:43 14° NE 00:10:43 14° NE visible
01 Jun 5.4 01:41:38 10° NW 01:41:53 11° NW 01:41:53 11° NW visible
02 Jun 4.4 00:27:53 10° N 00:29:22 26° NNE 00:29:22 26° NNE visible
03 Jun 4.4 00:46:26 10° NNW 00:47:52 27° NNW 00:47:52 27° NNW visible
03 Jun 5.0 23:34:16 10° NE 23:35:05 12° ENE 23:35:05 12° ENE visible
04 Jun 5.0 01:05:20 10° NW 01:06:14 16° NW 01:06:14 16° NW visible
04 Jun 4.1 23:51:35 10° NNE 23:53:18 25° NE 23:53:18 25° NE visible
06 Jun 3.6 00:09:30 10° N 00:11:22 40° N 00:11:22 40° N visible
07 Jun 4.4 00:27:43 10° NNW 00:29:18 24° WNW 00:29:18 24° WNW visible
07 Jun 4.2 23:14:01 10° NNE 23:15:59 20° ENE 23:15:59 20° ENE visible
08 Jun 5.3 00:46:33 10° WNW 00:47:05 12° WNW 00:47:05 12° WNW visible
08 Jun 2.8 23:31:16 10° N 23:33:37 49° NE 23:33:37 49° NE visible
09 Jun 3.2 23:48:49 10° NNW 23:51:07 44° WNW 23:51:07 44° WNW visible
10 Jun 4.5 22:35:17 10° NE 22:36:48 14° ENE 22:37:24 13° E visible
